Weather History for KY50 - November, 2012

Change the Weather History Date:

Friday, November 16, 2012

  Actual Average (KPCZ) Record (KPCZ)
Temperature  
Mean Temperature 34 °F -  
Max Temperature 41 °F 44 °F 72 °F (1953)
Min Temperature 27 °F 26 °F 7 °F (1959)
Degree Days  
Heating Degree Days 31    
Moisture  
Dew Point 29 °F    
Average Humidity 82    
Maximum Humidity 100    
Minimum Humidity 70    
Precipitation  
Precipitation 0.00 in - - ()
Sea Level Pressure  
Sea Level Pressure 30.48 in    
Wind  
Wind Speed 2 mph (ENE)    
Max Wind Speed 10 mph    
Max Gust Speed -    
Visibility 10 miles    
Events      
Averages and records for this station are not official NWS values.
T = Trace of Precipitation, MM = Missing Value Source: NWS Daily Summary

Daily Weather History Graph

Daily Weather History Graph

Search for Another Location

Airport or City:

Trip Planner

Search our weather history database for the weather conditions in past years. The results will help you decide how hot, cold, wet, or windy it might be!

Date:

Astronomy

Nov. 16, 2012 Rise Set
Actual Time 6:54 AM CST 4:29 PM CST
Civil Twilight 6:22 AM CST 5:00 PM CST
Nautical Twilight 5:47 AM CST 5:35 PM CST
Astronomical Twilight 5:13 AM CST 6:09 PM CST
Moon 9:50 AM CST (11/16) 7:27 PM CST (11/16)
Length of Visible Light 10h 37m
Length of Day
9h 35m
Waxing Crescent, 12% of the Moon is Illuminated
Nov 16
Waxing Crescent
Nov 20
First Quarter
Nov 28
Full
Dec 6
Last Quarter
Dec 13
New

Hourly Weather History & Observations

Time (CST) Temp. Windchill Dew Point Humidity Pressure Visibility Wind Dir Wind Speed Gust Speed Precip Events Conditions
12:56 AM 34.9 °F - 29.1 °F 79% 30.39 in 10.0 mi Calm Calm - N/A   Clear
1:56 AM 32.9 °F - 27.1 °F 79% 30.42 in 10.0 mi Calm Calm - N/A   Clear
2:56 AM 27.1 °F - 24.1 °F 88% 30.43 in 10.0 mi Calm Calm - N/A   Clear
3:56 AM 28.0 °F - 24.1 °F 85% 30.44 in 10.0 mi Calm Calm - N/A   Clear
4:56 AM 31.1 °F - 24.1 °F 75% 30.45 in 10.0 mi Calm Calm - N/A   Clear
5:56 AM 30.0 °F - 24.1 °F 79% 30.45 in 10.0 mi Calm Calm - N/A   Clear
6:56 AM 28.0 °F - 24.1 °F 85% 30.48 in 10.0 mi Calm Calm - N/A   Clear
7:46 AM 30.2 °F - 24.8 °F 80% 30.47 in 10.0 mi Calm Calm - N/A   Mostly Cloudy
7:56 AM 31.1 °F - 26.1 °F 82% 30.50 in 10.0 mi Calm Calm - N/A   Overcast
8:56 AM 32.9 °F 25.9 °F 27.1 °F 79% 30.51 in 10.0 mi NE 8.1 mph - N/A   Overcast
9:56 AM 34.9 °F 27.1 °F 28.0 °F 76% 30.52 in 10.0 mi NE 10.4 mph - N/A   Overcast
10:10 AM 35.6 °F 30.7 °F 28.4 °F 75% 30.49 in 10.0 mi ENE 5.8 mph - N/A   Overcast
10:47 AM 37.4 °F 32.8 °F 30.2 °F 75% 30.50 in 10.0 mi NE 5.8 mph - N/A   Overcast
10:56 AM 36.9 °F 31.4 °F 30.0 °F 76% 30.52 in 10.0 mi NE 6.9 mph - N/A   Overcast
11:56 AM 38.8 °F 32.6 °F 31.1 °F 74% 30.51 in 10.0 mi NE 9.2 mph - N/A   Overcast
12:56 PM 39.9 °F 34.5 °F 32.0 °F 73% 30.51 in 10.0 mi NE 8.1 mph - N/A   Overcast
1:56 PM 41.0 °F 35.8 °F 32.0 °F 70% 30.50 in 10.0 mi ENE 8.1 mph - N/A   Overcast
2:56 PM 41.9 °F 38.2 °F 32.9 °F 70% 30.49 in 10.0 mi East 5.8 mph - N/A   Overcast
3:26 PM 41.0 °F 36.4 °F 33.8 °F 76% 30.47 in 10.0 mi ENE 6.9 mph - N/A   Scattered Clouds
3:56 PM 41.0 °F 39.0 °F 32.9 °F 73% 30.49 in 10.0 mi East 3.5 mph - N/A   Clear
4:56 PM 36.9 °F - 32.0 °F 83% 30.48 in 10.0 mi Calm Calm - N/A   Clear
5:56 PM 32.0 °F - 30.0 °F 92% 30.49 in 10.0 mi Calm Calm - N/A   Partly Cloudy
6:44 PM 30.2 °F - 28.4 °F 93% 30.46 in 10.0 mi Calm Calm - N/A   Mostly Cloudy
6:56 PM 30.0 °F - 30.0 °F 100% 30.49 in 10.0 mi Calm Calm - N/A   Mostly Cloudy
7:56 PM 37.9 °F 33.5 °F 32.9 °F 82% 30.47 in 10.0 mi ESE 5.8 mph - N/A   Overcast
8:56 PM 36.9 °F 31.4 °F 32.9 °F 86% 30.46 in 10.0 mi ESE 6.9 mph - N/A   Overcast
9:39 PM 37.4 °F 32.1 °F 32.0 °F 81% 30.45 in 10.0 mi SE 6.9 mph - N/A   Overcast
9:56 PM 36.0 °F - 32.0 °F 86% 30.48 in 10.0 mi Calm Calm - N/A   Overcast
10:56 PM 34.9 °F - 32.0 °F 89% 30.48 in 10.0 mi Calm Calm - N/A   Overcast
11:19 PM 33.8 °F - 32.0 °F 93% 30.47 in 10.0 mi Calm Calm - N/A   Scattered Clouds
11:36 PM 33.8 °F - 32.0 °F 93% 30.47 in 10.0 mi Calm Calm - N/A   Mostly Cloudy
11:56 PM 32.0 °F - 31.1 °F 96% 30.49 in 8.0 mi Calm Calm - N/A   Overcast